Flag for Italy Weather past 2 weeks in Palermo, Italy

72 °F

Scattered clouds.

Feels Like: 76 °F
Forecast: 69 / 76 °F
Wind: 3 mph from West

Location: Palermo / Punta Raisi

Current Time: Oct 9, 2015 at 11:01:15 AM

Latest Report: Oct 9, 2015 at 10:20 AM

Visibility: N/A

Pressure: 29.95 "Hg

Humidity: 61%

Dew point: 57 °F

Location of PalermoLocation

Historic Weather in Palermo — Graph


Palermo temperature yesterday

Maximum temperature yesterday: 73 °F (at 9:20 AM)
Minimum temperature yesterday: 68 °F (at 3:20 AM)
Average temperature yesterday: 71 °F

Past Weeks' High & Low Weather Summary

High86 °F (Oct 6, 12:50 PM)88% (Sep 26, 9:50 AM)30.24 "Hg (Sep 26, 9:50 AM)
Low64 °F (Sep 27, 7:20 AM)40% (Oct 6, 12:50 PM)29.89 "Hg (Sep 24, 9:20 AM)
Average73 °F69%30.04 "Hg
* Reported Sep 24 9:20 AM — Oct 9 9:50 AM, Palermo, Weather by CustomWeather, © 2015

Note: Actual official high and low records may vary slightly from our data, if they occured in-between our weather recording intervals... More about our weather records


Palermo weather history for previous 24 hours

Time TempWeatherWind HumidityBarometerVisibility
9:50 AM
Fri, Oct 9
72 °FScattered clouds.3 mph57%29.95 "HgN/A
9:20 AM72 °FScattered clouds.3 mph57%29.98 "HgN/A
8:50 AM68 °FSunny.5 mph69%29.95 "Hg10 mi
8:20 AM66 °FSunny.5 mph73%29.95 "Hg10 mi
7:50 AM66 °FClear.5 mph68%29.95 "Hg10 mi
7:20 AM64 °FClear.3 mph68%29.95 "Hg10 mi
6:50 AM64 °FClear.6 mph68%29.95 "Hg10 mi
6:20 AM64 °FClear.2 mph73%29.95 "Hg10 mi
5:20 AM64 °FClear.3 mph73%29.98 "Hg10 mi
4:50 AM66 °FClear.5 mph68%29.98 "Hg10 mi
4:20 AM64 °FClear.5 mph73%29.98 "Hg10 mi
3:50 AM66 °FClear.3 mph64%29.98 "Hg10 mi
3:20 AM64 °FPassing clouds.3 mph68%30.01 "HgN/A
2:50 AM66 °FPassing clouds.3 mph64%30.01 "HgN/A
2:20 AM68 °FClear.2 mph60%30.01 "Hg10 mi
1:50 AM66 °FPassing clouds.3 mph64%30.01 "HgN/A
1:20 AM66 °FPassing clouds.3 mph64%30.01 "HgN/A
12:50 AM68 °FClear.1 mph60%30.04 "Hg10 mi
12:20 AM68 °FClear.3 mph60%30.04 "Hg10 mi
11:20 PM
Thu, Oct 8
68 °FClear.3 mph64%30.04 "Hg10 mi
10:50 PM70 °FPassing clouds.1 mph60%30.04 "HgN/A
10:20 PM70 °FPassing clouds.3 mph60%30.04 "HgN/A
9:50 PM70 °FPassing clouds.7 mph64%30.04 "HgN/A
9:20 PM70 °FPassing clouds.8 mph64%30.01 "HgN/A
8:50 PM70 °FClear.8 mph64%30.01 "Hg10 mi
8:20 PM70 °FPassing clouds.9 mph60%30.01 "HgN/A
7:50 PM70 °FPassing clouds.9 mph60%30.01 "HgN/A
7:20 PM72 °FScattered clouds.9 mph57%30.01 "HgN/A
6:50 PM72 °FScattered clouds.8 mph57%30.01 "HgN/A
6:20 PM73 °FScattered clouds.9 mph65%30.01 "HgN/A
5:50 PM73 °FScattered clouds.10 mph61%30.01 "HgN/A
5:20 PM73 °FScattered clouds.12 mph53%30.01 "HgN/A
4:50 PM73 °FScattered clouds.15 mph53%30.01 "HgN/A
4:20 PM73 °FScattered clouds.13 mph53%29.98 "HgN/A
3:50 PM73 °FScattered clouds.13 mph74%29.98 "HgN/A
3:20 PM73 °FScattered clouds.13 mph65%30.01 "HgN/A
2:50 PM73 °FScattered clouds.13 mph65%29.98 "HgN/A
2:20 PM73 °FScattered clouds.10 mph65%30.01 "HgN/A
1:50 PM73 °FPassing clouds.12 mph65%30.01 "HgN/A
1:20 PM73 °FSunny.12 mph69%30.01 "Hg10 mi
12:50 PM73 °FSunny.9 mph65%30.01 "Hg10 mi
12:20 PM73 °FSunny.12 mph65%30.01 "Hg10 mi
11:50 AM73 °FPassing clouds.14 mph65%30.01 "HgN/A
11:20 AM73 °FPassing clouds.10 mph69%29.98 "HgN/A
Weather by CustomWeather, © 2015

See weather overviewHow to use our weather pages